Location: Clatteringshaws Loch
(55.0508°N, 4.2860°W)
Time: 21:09:28
(UTC+00:00)

Amateur Radio Satellites - All Passes

Search period start: 27 February 2015 20:39
Search period end: 28 February 2015 20:39
Location: Clatteringshaws Loch, 55.0508°N, 4.2860°W

Satellite Date Start Highest point End Downlink Frequencies (MHz)
Time Altitude Azimuth
PCSat 27 Feb 20:45:05 20:48:14 16° 107° (ESE) 20:51:35 145.827
YUBILEINY 27 Feb 20:51:02 20:55:35 14° 332° (NNW) 20:59:55 435.215
HUMSAT D 27 Feb 20:51:58 20:55:41 32° 64° (ENE) 20:59:25 437.325/437.525
CUTE 1.7 + AOD 2 27 Feb 20:55:53 20:59:43 32° 265° (W) 21:03:32 437.475
CUBEBUG 2 27 Feb 20:59:37 21:04:09 81° 74° (ENE) 21:08:33 437.445
GONETS M04 27 Feb 21:03:03 21:09:55 28° 78° (ENE) 21:16:59
HO-68 27 Feb 21:03:53 21:10:32 39° 265° (W) 21:17:09 435.675
DOVE 4 27 Feb 21:17:02 21:21:42 33° 266° (W) 21:26:08 437.250
Oscar 11 27 Feb 21:18:29 21:22:44 54° 260° (W) 21:26:58 145.826/435.025
O/OREOS (USA 219) 27 Feb 21:20:08 21:21:56 12° 262° (W) 21:23:31 437.305
AISAT 27 Feb 21:22:42 21:27:04 50° 67° (ENE) 21:31:27 437.250
50 SAT 27 Feb 21:26:33 21:30:23 46° 68° (ENE) 21:34:13 437.505
CUBESAT XI-V 27 Feb 21:30:18 21:32:06 12° 313° (NW) 21:33:44 437.345
VELOX 1 27 Feb 21:33:55 21:38:21 60° 69° (ENE) 21:42:48 145.980
ESTCUBE 1 27 Feb 21:36:09 21:40:16 36° 63° (ENE) 21:44:28 437.505/2401.250
DX 1 27 Feb 21:36:12 21:40:34 64° 257° (WSW) 21:44:59 434.975-435.025
CUBEBUG 1 27 Feb 21:39:15 21:43:17 35° 63° (ENE) 21:47:22 437.445
BRITE-PL 27 Feb 21:41:39 21:45:05 16° 278° (W) 21:48:14 437.365/2234.400
STRAND 1 27 Feb 21:45:36 21:48:49 16° 312° (NW) 21:51:53 437.568
UNISAT 6 27 Feb 21:46:42 21:48:52 14° 85° (E) 21:51:11 437.425
AIST 2 27 Feb 21:46:45 21:50:44 35° 334° (NNW) 21:54:44 435.215
DELFI C3 27 Feb 21:47:11 21:50:54 34° 264° (W) 21:54:38 145.870
BEESAT 3 27 Feb 21:48:57 21:52:25 24° 345° (NNW) 21:55:53 437.485
CINEMA 3 27 Feb 21:52:31 21:56:33 26° 268° (W) 22:00:24 145.822/145.860
AAUSAT CUBESAT 2 27 Feb 21:55:03 21:57:37 15° 274° (W) 22:00:04 437.432
COMPASS 1 27 Feb 21:55:05 21:57:24 14° 275° (W) 21:59:34 437.405
ZACube-1 27 Feb 21:55:39 21:59:53 45° 262° (W) 22:04:01 437.345
FUNcube-1 27 Feb 21:55:45 21:59:58 45° 261° (W) 22:04:07 145.935
GOMX 1 27 Feb 22:05:57 22:08:26 13° 279° (W) 22:10:38 467.674
UWE-3 27 Feb 22:07:03 22:11:04 32° 265° (W) 22:14:58 435.000/436.395/437.385
BEESAT 2 27 Feb 22:10:42 22:14:06 23° 349° (N) 22:17:30 435.950
UKube-1 27 Feb 22:10:59 22:14:59 33° 264° (W) 22:18:58 .
TIGRISAT 27 Feb 22:12:48 22:16:08 22° 91° (E) 22:19:34 435.000
RS-15 27 Feb 22:14:48 22:20:24 17° 96° (E) 22:26:43 29.354- 29.394
NANOSAT C BR1 27 Feb 22:17:38 22:20:13 16° 87° (E) 22:22:54 145.865
SWISSCUBE 27 Feb 22:21:52 22:21:55 10° 43° (NE) 22:22:07 437.505
ANTELSAT 27 Feb 22:24:08 22:27:52 28° 94° (E) 22:31:37 437.575/2403.000
PCSat 27 Feb 22:25:27 22:30:51 71° 126° (SE) 22:36:17 145.827
SPROUT 27 Feb 22:25:57 22:29:42 29° 62° (ENE) 22:33:29 437.525
HUMSAT D 27 Feb 22:27:29 22:31:26 38° 263° (W) 22:35:21 437.325/437.525
BEESAT 27 Feb 22:30:02 22:31:08 11° 44° (NE) 22:32:24 436.000
CUBEBUG 2 27 Feb 22:38:31 22:41:28 16° 273° (W) 22:44:14 437.445
TISAT 1 27 Feb 22:42:26 22:46:22 36° 64° (ENE) 22:50:20 437.305
QB50P1 27 Feb 22:48:47 22:52:31 29° 94° (E) 22:56:15 145.935-145.965
QB50P2 27 Feb 22:51:18 22:55:06 31° 94° (E) 22:58:54 145.880/145.840
ITUPSAT 1 27 Feb 22:53:14 22:55:53 15° 49° (NE) 22:58:41 437.325
GONETS M04 27 Feb 22:57:07 23:05:51 88° 285° (WNW) 23:14:37
AISAT 27 Feb 23:00:03 23:03:56 27° 267° (W) 23:07:48 437.250
50 SAT 27 Feb 23:02:20 23:05:38 24° 268° (W) 23:08:53 437.505
DUCHIFAT 1 27 Feb 23:09:29 23:13:33 43° 98° (E) 23:17:35 145.980
VELOX 1 27 Feb 23:11:43 23:15:20 23° 270° (W) 23:18:53 145.980
ESTCUBE 1 27 Feb 23:12:54 23:17:09 39° 263° (W) 23:21:27 437.505/2401.250
CUBEBUG 1 27 Feb 23:15:27 23:19:39 39° 263° (W) 23:23:51 437.445
DX 1 27 Feb 23:17:10 23:17:50 10° 278° (W) 23:18:16 434.975-435.025
BUGSAT 1 27 Feb 23:17:45 23:21:46 40° 97° (E) 23:25:44 437.445
UNISAT 6 27 Feb 23:22:05 23:26:24 90° 125° (SE) 23:30:42 437.425
POLYITAN 1 27 Feb 23:25:26 23:29:40 61° 102° (ESE) 23:33:52 437.675
AIST 2 27 Feb 23:26:57 23:30:23 22° 358° (N) 23:33:49 435.215
POPSAT HIP 1 27 Feb 23:27:47 23:32:02 64° 102° (ESE) 23:36:14 437.405
BEESAT 3 27 Feb 23:28:20 23:31:41 22° 9° (N) 23:35:01 437.485
CUSAT 1 27 Feb 23:29:42 23:34:03 21° 92° (E) 23:37:45 437.405
TIGRISAT 27 Feb 23:49:05 23:53:16 55° 291° (WNW) 23:57:26 435.000
BEESAT 2 27 Feb 23:50:00 23:53:27 24° 13° (NNE) 23:56:54 435.950
NANOSAT C BR1 27 Feb 23:52:25 23:56:42 79° 288° (WNW) 00:00:55 145.865
SWISSCUBE 27 Feb 23:54:13 23:58:39 40° 64° (ENE) 00:03:09 437.505
ANTELSAT 28 Feb 00:00:46 00:04:51 43° 294° (WNW) 00:08:55 437.575/2403.000
SPROUT 28 Feb 00:01:28 00:05:40 46° 261° (W) 00:09:53 437.525
BEESAT 28 Feb 00:03:26 00:07:56 44° 65° (ENE) 00:12:31 436.000
PCSat 28 Feb 00:09:35 00:14:41 38° 330° (NNW) 00:19:47 145.827
TISAT 1 28 Feb 00:18:16 00:22:13 34° 264° (W) 00:26:10 437.305
RS-15 28 Feb 00:19:52 00:30:17 56° 121° (ESE) 00:41:01 29.354- 29.394
DANDE 28 Feb 00:20:18 00:26:34 44° 98° (E) 00:31:23 436.750
QB50P1 28 Feb 00:24:32 00:28:34 42° 294° (WNW) 00:32:33 145.935-145.965
QB50P2 28 Feb 00:27:08 00:31:08 39° 295° (WNW) 00:35:05 145.880/145.840
ITUPSAT 1 28 Feb 00:28:16 00:33:02 66° 69° (ENE) 00:37:49 437.325
DUCHIFAT 1 28 Feb 00:45:34 00:49:18 29° 298° (WNW) 00:52:56 145.980
YUBILEINY 28 Feb 00:53:22 00:59:21 20° 39° (NE) 01:05:35 435.215
BUGSAT 1 28 Feb 00:53:27 00:57:11 30° 298° (WNW) 01:00:51 437.445
GONETS M04 28 Feb 00:56:39 01:04:06 30° 308° (NW) 01:11:27
UNISAT 6 28 Feb 00:59:55 01:02:41 17° 305° (NW) 01:05:21 437.425
POLYITAN 1 28 Feb 01:01:57 01:05:17 22° 301° (WNW) 01:08:33 437.675
POPSAT HIP 1 28 Feb 01:04:18 01:07:36 22° 302° (WNW) 01:10:49 437.405
AIST 2 28 Feb 01:06:16 01:10:07 30° 21° (NNE) 01:13:57 435.215
BEESAT 3 28 Feb 01:06:38 01:10:40 44° 32° (NNE) 01:14:40 437.485
CUSAT 1 28 Feb 01:10:37 01:16:47 75° 286° (WNW) 01:21:21 437.405
KKS-1 28 Feb 01:11:00 01:15:12 41° 65° (ENE) 01:19:26 437.445
M-CUBED/EXP-1 PRIME 28 Feb 01:24:42 01:25:45 11° 44° (NE) 01:26:55 437.505
STARS 28 Feb 01:25:25 01:29:32 39° 64° (ENE) 01:33:41 437.465
TIGRISAT 28 Feb 01:27:54 01:29:13 11° 311° (NW) 01:30:24 435.000
BEESAT 2 28 Feb 01:28:17 01:32:26 54° 36° (NE) 01:36:31 435.950
NANOSAT C BR1 28 Feb 01:29:29 01:31:57 15° 307° (NW) 01:34:17 145.865
AUBIESAT-1 28 Feb 01:29:34 01:30:40 11° 44° (NE) 01:31:53 437.475
ITAMSAT 1 28 Feb 01:30:08 01:33:36 18° 86° (E) 01:37:11 435.822/435.867
SWISSCUBE 28 Feb 01:32:07 01:36:35 38° 264° (W) 01:41:04 437.505
Oscar 19 28 Feb 01:38:42 01:43:39 47° 99° (E) 01:48:37 437.125/150
BEESAT 28 Feb 01:41:35 01:45:57 34° 265° (W) 01:50:18 436.000
PCSat 28 Feb 01:55:09 01:59:30 24° 355° (N) 02:03:51 145.827
MOZHAYETS 4 28 Feb 02:00:43 02:02:32 12° 49° (NE) 02:04:30
DANDE 28 Feb 02:03:52 02:09:59 41° 292° (WNW) 02:14:38 436.750
ITUPSAT 1 28 Feb 02:07:36 02:11:24 23° 270° (W) 02:15:10 437.325
Gurwin Techsat 1B 28 Feb 02:21:11 02:26:00 34° 94° (E) 02:30:50 435.225
RS-15 28 Feb 02:31:38 02:42:35 70° 329° (NNW) 02:53:53 29.354- 29.394
BEESAT 3 28 Feb 02:44:50 02:48:48 43° 233° (SW) 02:52:43 437.485
AIST 2 28 Feb 02:44:53 02:49:14 89° 41° (NE) 02:53:30 435.215
KKS-1 28 Feb 02:47:53 02:51:58 33° 265° (W) 02:56:01 437.445
YUBILEINY 28 Feb 02:50:02 02:58:43 56° 68° (ENE) 03:07:24 435.215
M-CUBED/EXP-1 PRIME 28 Feb 02:56:46 03:00:05 67° 64° (ENE) 03:03:33 437.505
CUSAT 1 28 Feb 02:56:54 03:00:11 16° 303° (WNW) 03:02:54 437.405
HORYU 2 28 Feb 02:57:30 03:00:49 21° 90° (E) 03:04:13 437.375
AUBIESAT-1 28 Feb 03:01:37 03:04:55 68° 66° (ENE) 03:08:25 437.475
GONETS M04 28 Feb 03:01:48 03:04:54 12° 339° (NNW) 03:07:49
STARS 28 Feb 03:02:00 03:06:05 34° 264° (W) 03:10:09 437.465
BEESAT 2 28 Feb 03:06:42 03:10:30 33° 236° (WSW) 03:14:13 435.950
ITAMSAT 1 28 Feb 03:08:39 03:13:56 89° 102° (ESE) 03:19:11 435.822/435.867
SO-50 28 Feb 03:08:52 03:13:18 45° 126° (SE) 03:17:55 436.795
Oscar 19 28 Feb 03:18:17 03:22:57 36° 299° (WNW) 03:27:34 437.125/150
MOZHAYETS 4 28 Feb 03:34:28 03:38:55 56° 69° (ENE) 03:43:26
PCSat 28 Feb 03:39:47 03:44:31 29° 20° (NNE) 03:49:15 145.827
AO-7 28 Feb 03:45:30 03:52:55 35° 93° (E) 04:00:26 29.400- 29.500
CUBESAT XI-V 28 Feb 03:49:45 03:51:59 14° 49° (NE) 03:54:23 437.345
JAS-2 28 Feb 03:54:22 04:00:38 33° 90° (E) 04:07:30 435.910
Gurwin Techsat 1B 28 Feb 04:01:03 04:06:13 51° 295° (WNW) 04:11:21 435.225
STRAND 1 28 Feb 04:12:42 04:15:56 17° 49° (NE) 04:19:18 437.568
PRISM 28 Feb 04:20:09 04:23:13 20° 57° (ENE) 04:26:21 437.425
AIST 2 28 Feb 04:24:17 04:27:20 19° 243° (WSW) 04:30:17 435.215
HORYU 2 28 Feb 04:33:32 04:37:57 65° 290° (WNW) 04:42:21 437.375
M-CUBED/EXP-1 PRIME 28 Feb 04:33:54 04:35:36 13° 266° (W) 04:37:14 437.505
AUBIESAT-1 28 Feb 04:38:41 04:40:23 13° 266° (W) 04:42:01 437.475
RS-15 28 Feb 04:46:06 04:56:51 52° 0° (N) 05:08:01 29.354- 29.394
YUBILEINY 28 Feb 04:47:12 04:55:34 48° 272° (W) 05:03:51 435.215
ITAMSAT 1 28 Feb 04:48:54 04:52:53 22° 307° (NW) 04:56:45 435.822/435.867
SO-50 28 Feb 04:49:15 04:53:53 51° 328° (NNW) 04:58:40 436.795
GONETS M04 28 Feb 05:05:33 05:07:08 11° 14° (NNE) 05:08:52
MOZHAYETS 4 28 Feb 05:12:44 05:16:31 25° 270° (W) 05:20:16
PCSat 28 Feb 05:23:21 05:28:49 71° 44° (NE) 05:34:15 145.827
CUBESAT XI-V 28 Feb 05:23:59 05:28:36 60° 70° (ENE) 05:33:18 437.345
AO-7 28 Feb 05:38:13 05:46:32 75° 297° (WNW) 05:54:47 29.400- 29.500
JAS-2 28 Feb 05:39:14 05:46:14 74° 291° (WNW) 05:53:54 435.910
Gurwin Techsat 1B 28 Feb 05:42:32 05:45:10 14° 316° (NW) 05:47:40 435.225
STRAND 1 28 Feb 05:49:16 05:54:23 71° 70° (ENE) 05:59:34 437.568
PRISM 28 Feb 05:54:12 05:58:20 68° 257° (WSW) 06:02:32 437.425
Cubesat XI-IV 28 Feb 06:10:24 06:15:22 37° 95° (E) 06:20:20 437.490
HORYU 2 28 Feb 06:11:37 06:13:53 14° 310° (NW) 06:16:01 437.375
CUTE-I 28 Feb 06:20:18 06:25:25 42° 97° (E) 06:30:31 437.470
SO-50 28 Feb 06:31:13 06:35:23 28° 352° (N) 06:39:37 436.795
YUBILEINY 28 Feb 06:46:34 06:50:15 13° 296° (WNW) 06:53:28 435.215
RS-15 28 Feb 06:59:55 07:11:08 70° 32° (NNE) 07:22:52 29.354- 29.394
GONETS M04 28 Feb 07:01:38 07:08:21 24° 46° (NE) 07:15:17
CUBESAT XI-V 28 Feb 07:02:36 07:06:28 24° 270° (W) 07:10:16 437.345
AIST 1 28 Feb 07:05:18 07:09:01 28° 89° (E) 07:12:50
PCSat 28 Feb 07:07:12 07:11:55 30° 245° (WSW) 07:16:32 145.827
JAS-2 28 Feb 07:25:05 07:30:29 25° 311° (NW) 07:36:08 435.910
STRAND 1 28 Feb 07:30:01 07:34:09 23° 271° (W) 07:38:13 437.568
AO-7 28 Feb 07:31:29 07:38:18 29° 320° (NW) 07:44:59 29.400- 29.500
PRISM 28 Feb 07:34:17 07:34:47 10° 278° (W) 07:35:03 437.425
TIGRISAT 28 Feb 07:46:15 07:46:38 10° 48° (NE) 07:47:11 435.000
Cubesat XI-IV 28 Feb 07:50:29 07:55:39 48° 296° (WNW) 08:00:48 437.490
ANTELSAT 28 Feb 07:56:31 07:58:17 12° 51° (NE) 08:00:10 437.575/2403.000
BRITE-PL 28 Feb 07:58:48 08:02:34 23° 87° (E) 08:06:12 437.365/2234.400
CUTE-I 28 Feb 08:00:29 08:05:33 42° 298° (WNW) 08:10:33 437.470
SO-50 28 Feb 08:12:46 08:17:08 31° 16° (NNE) 08:21:34 436.795
CANX-2 28 Feb 08:14:56 08:18:08 21° 89° (E) 08:21:23 2200.000
QB50P1 28 Feb 08:16:03 08:17:24 11° 49° (NE) 08:18:54 145.935-145.965
SEEDS 28 Feb 08:16:57 08:19:46 17° 88° (E) 08:22:40 437.485
QB50P2 28 Feb 08:18:28 08:20:04 12° 50° (NE) 08:21:50 145.880/145.840
GOMX 1 28 Feb 08:19:35 08:23:14 23° 89° (E) 08:26:46 467.674
HO-68 28 Feb 08:22:48 08:29:05 32° 92° (E) 08:35:27 435.675
CUTE 1.7 + AOD 2 28 Feb 08:33:44 08:37:23 27° 93° (E) 08:41:04 437.475
DUCHIFAT 1 28 Feb 08:35:19 08:37:48 16° 54° (NE) 08:40:24 145.980
BUGSAT 1 28 Feb 08:41:39 08:43:56 15° 53° (NE) 08:46:20 437.445
AIST 1 28 Feb 08:42:23 08:46:34 42° 290° (WNW) 08:50:47
POLYITAN 1 28 Feb 08:51:03 08:54:11 20° 58° (ENE) 08:57:25 437.675
UNISAT 6 28 Feb 08:52:08 08:55:58 30° 63° (ENE) 08:59:48 437.425
POPSAT HIP 1 28 Feb 08:53:07 08:56:18 21° 58° (ENE) 08:59:34 437.405
GONETS M04 28 Feb 08:58:22 09:07:08 71° 73° (ENE) 09:15:54
Oscar 11 28 Feb 08:59:20 09:02:16 18° 88° (E) 09:05:18 145.826/435.025
DOVE 4 28 Feb 09:08:48 09:13:03 42° 97° (E) 09:17:07 437.250
RS-15 28 Feb 09:12:36 09:23:33 58° 239° (WSW) 09:34:55 29.354- 29.394
NANOSAT C BR1 28 Feb 09:16:48 09:20:34 31° 63° (ENE) 09:24:22 145.865
TIGRISAT 28 Feb 09:18:18 09:22:31 48° 68° (ENE) 09:26:42 435.000
DX 1 28 Feb 09:18:42 09:21:02 14° 85° (E) 09:23:30 434.975-435.025
DELFI C3 28 Feb 09:20:07 09:23:15 21° 90° (E) 09:26:27 145.870
AO-7 28 Feb 09:24:06 09:28:32 16° 347° (NNW) 09:32:54 29.400- 29.500
AAUSAT CUBESAT 2 28 Feb 09:28:56 09:33:03 56° 100° (E) 09:37:10 437.432
COMPASS 1 28 Feb 09:29:02 09:33:13 63° 102° (ESE) 09:37:23 437.405
ANTELSAT 28 Feb 09:30:01 09:34:21 61° 70° (ENE) 09:38:39 437.575/2403.000
Cubesat XI-IV 28 Feb 09:32:07 09:34:40 13° 317° (NW) 09:37:04 437.490
BRITE-PL 28 Feb 09:36:47 09:41:39 62° 290° (WNW) 09:46:06 437.365/2234.400
FUNcube-1 28 Feb 09:37:30 09:40:37 21° 90° (E) 09:43:48 145.935
ZACube-1 28 Feb 09:37:35 09:40:44 21° 90° (E) 09:43:57 437.345
CINEMA 3 28 Feb 09:39:29 09:43:37 46° 98° (E) 09:47:39 145.822/145.860
CUTE-I 28 Feb 09:42:26 09:44:26 12° 319° (NW) 09:46:15 437.470
QB50P1 28 Feb 09:48:17 09:52:29 55° 69° (ENE) 09:56:42 145.935-145.965
UWE-3 28 Feb 09:49:31 09:53:14 31° 94° (E) 09:56:57 435.000/436.395/437.385
CANX-2 28 Feb 09:50:16 09:54:28 60° 290° (WNW) 09:58:39 2200.000
QB50P2 28 Feb 09:51:00 09:55:14 59° 70° (ENE) 09:59:29 145.880/145.840
UKube-1 28 Feb 09:51:21 09:54:59 25° 93° (E) 09:58:38 .
SEEDS 28 Feb 09:51:53 09:56:06 71° 289° (WNW) 10:00:20 437.485
SO-50 28 Feb 09:53:28 09:58:24 72° 39° (NE) 10:03:21 436.795
GOMX 1 28 Feb 09:57:15 10:01:50 56° 291° (WNW) 10:06:06 467.674
O/OREOS (USA 219) 28 Feb 09:58:09 10:02:15 34° 109° (ESE) 10:06:26 437.305
CUSAT 1 28 Feb 10:01:07 10:02:38 13° 56° (NE) 10:04:07 437.405
HUMSAT D 28 Feb 10:04:51 10:08:01 21° 90° (E) 10:11:15 437.325/437.525
DUCHIFAT 1 28 Feb 10:08:46 10:13:04 82° 73° (ENE) 10:17:22 145.980
CUTE 1.7 + AOD 2 28 Feb 10:09:28 10:13:31 44° 293° (WNW) 10:17:33 437.475
HO-68 28 Feb 10:10:19 10:17:30 73° 294° (WNW) 10:24:39 435.675
BUGSAT 1 28 Feb 10:14:31 10:18:47 74° 72° (ENE) 10:23:05 437.445
CUBEBUG 2 28 Feb 10:20:24 10:24:37 68° 102° (ESE) 10:28:45 437.445
POLYITAN 1 28 Feb 10:25:27 10:29:45 71° 257° (WSW) 10:34:03 437.675
POPSAT HIP 1 28 Feb 10:27:32 10:31:50 69° 257° (WSW) 10:36:08 437.405
UNISAT 6 28 Feb 10:28:28 10:32:42 43° 262° (W) 10:36:51 437.425
50 SAT 28 Feb 10:33:10 10:36:35 28° 94° (E) 10:40:02 437.505
Oscar 11 28 Feb 10:34:40 10:39:00 72° 288° (WNW) 10:43:18 145.826/435.025
ISS 28 Feb 10:38:23 10:40:02 13° 146° (SE) 10:41:43 145.825
AISAT 28 Feb 10:43:04 10:47:13 36° 96° (E) 10:51:22 437.250
DOVE 4 28 Feb 10:46:48 10:50:45 30° 298° (WNW) 10:54:29 437.250
NANOSAT C BR1 28 Feb 10:52:16 10:56:22 42° 262° (W) 11:00:27 145.865
DX 1 28 Feb 10:53:36 10:58:02 88° 109° (ESE) 11:02:25 434.975-435.025
VELOX 1 28 Feb 10:54:00 10:58:18 44° 98° (E) 11:02:35 145.980
DELFI C3 28 Feb 10:54:47 10:58:47 54° 290° (WNW) 11:02:46 145.870
DANDE 28 Feb 10:55:42 10:58:46 38° 67° (ENE) 11:01:22 436.750
TIGRISAT 28 Feb 10:55:45 10:59:31 27° 267° (W) 11:03:12 435.000
GONETS M04 28 Feb 10:55:45 11:03:30 36° 277° (W) 11:11:08
CUBEBUG 1 28 Feb 10:57:18 11:01:00 25° 92° (E) 11:04:42 437.445
ESTCUBE 1 28 Feb 10:58:20 11:02:17 28° 93° (E) 11:06:15 437.505/2401.250
AAUSAT CUBESAT 2 28 Feb 11:05:05 11:08:27 23° 300° (WNW) 11:11:46 437.432
COMPASS 1 28 Feb 11:05:22 11:08:36 21° 301° (WNW) 11:11:47 437.405
ANTELSAT 28 Feb 11:08:11 11:11:35 21° 270° (W) 11:14:52 437.575/2403.000
FUNcube-1 28 Feb 11:13:16 11:17:22 57° 291° (WNW) 11:21:26 145.935
ZACube-1 28 Feb 11:13:24 11:17:31 56° 290° (WNW) 11:21:34 437.345
AO-7 28 Feb 11:13:35 11:18:08 16° 16° (NNE) 11:22:47 29.400- 29.500
BRITE-PL 28 Feb 11:16:41 11:19:14 14° 312° (NW) 11:21:35 437.365/2234.400
CINEMA 3 28 Feb 11:17:03 11:20:41 27° 299° (WNW) 11:24:12 145.822/145.860
ITAMSAT 1 28 Feb 11:18:40 11:21:15 14° 45° (NE) 11:23:59 435.822/435.867
Oscar 19 28 Feb 11:24:37 11:28:56 29° 58° (ENE) 11:33:19 437.125/150
QB50P1 28 Feb 11:25:16 11:28:43 23° 269° (W) 11:32:07 145.935-145.965
UWE-3 28 Feb 11:26:00 11:29:54 38° 294° (WNW) 11:33:45 435.000/436.395/437.385
RS-15 28 Feb 11:26:36 11:33:40 18° 263° (W) 11:40:14 29.354- 29.394
UKube-1 28 Feb 11:27:10 11:31:25 50° 293° (WNW) 11:35:37 .
CANX-2 28 Feb 11:28:00 11:29:39 12° 309° (NW) 11:31:10 2200.000
QB50P2 28 Feb 11:28:11 11:31:32 21° 270° (W) 11:34:49 145.880/145.840
SEEDS 28 Feb 11:29:08 11:31:16 14° 307° (NW) 11:33:18 437.485
SO-50 28 Feb 11:34:24 11:38:40 30° 239° (WSW) 11:42:55 436.795
GOMX 1 28 Feb 11:37:04 11:39:02 12° 313° (NW) 11:40:48 467.674
O/OREOS (USA 219) 28 Feb 11:37:10 11:41:36 46° 310° (NW) 11:46:04 437.305
HUMSAT D 28 Feb 11:40:07 11:44:09 54° 291° (WNW) 11:48:09 437.325/437.525
SPROUT 28 Feb 11:41:30 11:44:43 20° 89° (E) 11:47:59 437.525
CUSAT 1 28 Feb 11:43:09 11:45:53 35° 264° (W) 11:48:18 437.405
DUCHIFAT 1 28 Feb 11:46:51 11:49:32 16° 274° (W) 11:52:06 145.980
BUGSAT 1 28 Feb 11:51:54 11:54:50 17° 273° (W) 11:57:39 437.445
TISAT 1 28 Feb 11:55:54 11:59:22 24° 92° (E) 12:02:51 437.305
CUBEBUG 2 28 Feb 11:57:51 12:00:57 20° 302° (WNW) 12:03:58 437.445
HO-68 28 Feb 11:58:41 12:04:17 25° 317° (NW) 12:09:46 435.675
POLYITAN 1 28 Feb 12:05:16 12:06:35 11° 278° (W) 12:07:42 437.675
POPSAT HIP 1 28 Feb 12:07:32 12:08:39 11° 278° (W) 12:09:34 437.405
50 SAT 28 Feb 12:08:02 12:11:44 38° 294° (WNW) 12:15:25 437.505
Gurwin Techsat 1B 28 Feb 12:11:15 12:15:20 23° 54° (NE) 12:19:31 435.225
Oscar 11 28 Feb 12:12:11 12:14:31 14° 308° (NW) 12:16:44 145.826/435.025
ISS 28 Feb 12:12:51 12:15:50 35° 165° (SSE) 12:18:50 145.825
AISAT 28 Feb 12:19:44 12:23:52 37° 297° (WNW) 12:27:57 437.250
ITUPSAT 1 28 Feb 12:24:26 12:25:12 10° 80° (E) 12:26:13 437.325
HORYU 2 28 Feb 12:30:40 12:31:02 10° 46° (NE) 12:31:33 437.375
DX 1 28 Feb 12:30:46 12:33:46 18° 306° (NW) 12:36:39 434.975-435.025
VELOX 1 28 Feb 12:30:49 12:34:48 31° 298° (WNW) 12:38:42 145.980
DELFI C3 28 Feb 12:32:19 12:33:12 10° 310° (NW) 12:33:57 145.870
CUBEBUG 1 28 Feb 12:33:19 12:37:41 52° 292° (WNW) 12:41:58 437.445
ESTCUBE 1 28 Feb 12:34:58 12:39:24 49° 293° (WNW) 12:43:47 437.505/2401.250
JAS-2 28 Feb 12:36:35 12:37:12 10° 28° (NNE) 12:38:01 435.910
DANDE 28 Feb 12:40:21 12:41:36 12° 275° (W) 12:42:42 436.750
FUNcube-1 28 Feb 12:51:39 12:52:56 11° 310° (NW) 12:54:05 145.935
ZACube-1 28 Feb 12:51:52 12:53:06 11° 310° (NW) 12:54:10 437.345
ITAMSAT 1 28 Feb 12:54:43 12:59:47 53° 66° (ENE) 13:04:54 435.822/435.867
AO-7 28 Feb 13:01:33 13:08:30 32° 42° (NE) 13:15:34 29.400- 29.500
Oscar 19 28 Feb 13:02:55 13:08:02 62° 258° (WSW) 13:13:09 437.125/150
UKube-1 28 Feb 13:05:24 13:06:42 11° 313° (NW) 13:07:50 .
SPROUT 28 Feb 13:16:57 13:21:15 62° 289° (WNW) 13:25:30 437.525
HUMSAT D 28 Feb 13:18:15 13:19:08 10° 310° (NW) 13:19:53 437.325/437.525
O/OREOS (USA 219) 28 Feb 13:19:27 13:22:13 15° 334° (NNW) 13:24:56 437.305
SWISSCUBE 28 Feb 13:24:54 13:29:18 34° 95° (E) 13:33:43 437.505
TISAT 1 28 Feb 13:31:19 13:35:28 51° 292° (WNW) 13:39:34 437.305
BEESAT 28 Feb 13:34:02 13:38:32 38° 96° (E) 13:43:02 436.000
HO-68 28 Feb 13:47:39 13:49:39 11° 342° (NNW) 13:51:31 435.675
ISS 28 Feb 13:48:49 13:51:56 45° 184° (S) 13:55:03 145.825
Gurwin Techsat 1B 28 Feb 13:49:29 13:54:49 84° 252° (WSW) 14:00:12 435.225
ITUPSAT 1 28 Feb 13:59:28 14:04:15 59° 101° (E) 14:09:02 437.325
HORYU 2 28 Feb 14:02:31 14:06:45 45° 66° (ENE) 14:11:00 437.375
YUBILEINY 28 Feb 14:10:48 14:13:42 12° 64° (ENE) 14:17:07 435.215
CUBEBUG 1 28 Feb 14:11:40 14:13:10 11° 312° (NW) 14:14:31 437.445
ESTCUBE 1 28 Feb 14:13:56 14:15:21 11° 313° (NW) 14:16:36 437.505/2401.250
JAS-2 28 Feb 14:15:28 14:20:18 29° 53° (NE) 14:25:41 435.910
KKS-1 28 Feb 14:31:32 14:35:28 30° 94° (E) 14:39:24 437.445
ITAMSAT 1 28 Feb 14:34:54 14:39:34 32° 266° (W) 14:44:14 435.822/435.867
STARS 28 Feb 14:44:30 14:48:17 27° 93° (E) 14:52:04 437.465
Oscar 19 28 Feb 14:46:35 14:48:34 12° 280° (W) 14:50:19 437.125/150
AO-7 28 Feb 14:52:05 15:00:27 83° 65° (ENE) 15:08:49 29.400- 29.500
SPROUT 28 Feb 14:54:39 14:56:35 13° 309° (NW) 14:58:23 437.525
SWISSCUBE 28 Feb 15:02:43 15:07:18 43° 295° (WNW) 15:11:51 437.505
TISAT 1 28 Feb 15:09:27 15:10:25 11° 312° (NW) 15:11:15 437.305
BEESAT 28 Feb 15:11:57 15:16:27 40° 296° (WNW) 15:20:54 436.000
ISS 28 Feb 15:25:14 15:27:57 25° 204° (SSW) 15:30:40 145.825
Gurwin Techsat 1B 28 Feb 15:32:12 15:35:43 17° 276° (W) 15:39:03 435.225
ITUPSAT 1 28 Feb 15:37:48 15:41:54 28° 302° (WNW) 15:45:55 437.325
HORYU 2 28 Feb 15:39:42 15:43:36 29° 266° (W) 15:47:29 437.375
JAS-2 28 Feb 15:59:21 16:04:55 72° 257° (WSW) 16:11:15 435.910
YUBILEINY 28 Feb 16:00:12 16:08:21 47° 88° (E) 16:16:39 435.215
Cubesat XI-IV 28 Feb 16:01:05 16:05:26 26° 55° (NE) 16:09:52 437.490
M-CUBED/EXP-1 PRIME 28 Feb 16:06:13 16:09:04 19° 97° (E) 16:12:11 437.505
KKS-1 28 Feb 16:08:01 16:12:17 44° 294° (WNW) 16:16:29 437.445
AUBIESAT-1 28 Feb 16:10:32 16:13:25 19° 97° (E) 16:16:31 437.475
CUTE-I 28 Feb 16:10:38 16:15:10 29° 57° (ENE) 16:19:48 437.470
STARS 28 Feb 16:20:44 16:24:59 47° 293° (WNW) 16:29:11 437.465
O/OREOS (USA 219) 28 Feb 16:42:33 16:45:09 15° 25° (NNE) 16:47:49 437.305
SWISSCUBE 28 Feb 16:42:49 16:44:07 11° 316° (NW) 16:45:15 437.505
AO-7 28 Feb 16:46:56 16:54:15 31° 269° (W) 17:01:24 29.400- 29.500
MOZHAYETS 4 28 Feb 16:59:25 17:03:56 50° 99° (E) 17:08:28
AIST 1 28 Feb 17:04:54 17:08:01 19° 59° (ENE) 17:11:13
HO-68 28 Feb 17:14:39 17:19:13 19° 36° (NE) 17:23:57 435.675
PRISM 28 Feb 17:31:46 17:33:05 11° 83° (E) 17:34:35 437.425
Cubesat XI-IV 28 Feb 17:39:44 17:45:07 75° 255° (WSW) 17:50:34 437.490
BRITE-PL 28 Feb 17:40:11 17:43:12 15° 49° (NE) 17:46:17 437.365/2234.400
M-CUBED/EXP-1 PRIME 28 Feb 17:40:26 17:44:23 69° 295° (WNW) 17:48:41 437.505
AUBIESAT-1 28 Feb 17:44:41 17:48:39 70° 295° (WNW) 17:52:58 437.475
JAS-2 28 Feb 17:48:09 17:51:33 15° 282° (WNW) 17:54:54 435.910
CUTE-I 28 Feb 17:49:37 17:54:57 65° 257° (WSW) 18:00:21 437.470
STRAND 1 28 Feb 17:53:54 17:56:33 14° 83° (E) 17:59:24 437.568
YUBILEINY 28 Feb 17:56:33 18:05:09 57° 292° (WNW) 18:13:50 435.215
GOMX 1 28 Feb 17:58:54 18:01:34 15° 50° (NE) 18:04:19 467.674
STARS 28 Feb 17:59:38 18:00:32 10° 313° (NW) 18:01:17 437.465
O/OREOS (USA 219) 28 Feb 18:21:24 18:25:49 43° 49° (NE) 18:30:14 437.305
BEESAT 3 28 Feb 18:22:35 18:26:18 33° 124° (ESE) 18:30:04 437.485
AIST 2 28 Feb 18:29:03 18:31:52 18° 116° (ESE) 18:34:49 435.215
MOZHAYETS 4 28 Feb 18:36:59 18:41:00 29° 299° (WNW) 18:44:58
AIST 1 28 Feb 18:41:50 18:46:18 75° 260° (W) 18:50:42
BEESAT 2 28 Feb 18:44:51 18:48:48 44° 127° (SE) 18:52:49 435.950
DOVE 4 28 Feb 18:44:54 18:48:34 21° 57° (ENE) 18:52:13 437.250
CUBESAT XI-V 28 Feb 18:50:50 18:55:31 56° 100° (E) 19:00:10 437.345
AAUSAT CUBESAT 2 28 Feb 18:53:13 18:55:49 17° 56° (NE) 18:58:31 437.432
COMPASS 1 28 Feb 18:53:26 18:56:15 18° 57° (ENE) 18:59:11 437.405
HO-68 28 Feb 18:58:43 19:05:34 52° 59° (ENE) 19:12:28 435.675
PRISM 28 Feb 19:05:11 19:09:26 74° 104° (ESE) 19:13:40 437.425
CINEMA 3 28 Feb 19:12:30 19:15:50 20° 57° (ENE) 19:19:10 145.822/145.860
CANX-2 28 Feb 19:14:43 19:18:35 36° 65° (ENE) 19:22:29 2200.000
BRITE-PL 28 Feb 19:15:22 19:20:51 58° 69° (ENE) 19:26:08 437.365/2234.400
SEEDS 28 Feb 19:15:53 19:19:33 30° 63° (ENE) 19:23:16 437.485
M-CUBED/EXP-1 PRIME 28 Feb 19:16:39 19:18:49 14° 313° (NW) 19:20:59 437.505
UWE-3 28 Feb 19:20:06 19:21:55 13° 52° (NE) 19:23:52 435.000/436.395/437.385
UKube-1 28 Feb 19:20:25 19:21:52 12° 48° (NE) 19:23:27 .
AUBIESAT-1 28 Feb 19:20:49 19:23:02 14° 313° (NW) 19:25:14 437.475
Cubesat XI-IV 28 Feb 19:23:05 19:26:16 15° 277° (W) 19:29:17 437.490
STRAND 1 28 Feb 19:31:35 19:36:46 74° 104° (ESE) 19:41:57 437.568
CUTE 1.7 + AOD 2 28 Feb 19:33:29 19:37:32 48° 69° (ENE) 19:41:38 437.475
GOMX 1 28 Feb 19:33:39 19:38:53 58° 69° (ENE) 19:43:53 467.674
CUTE-I 28 Feb 19:33:40 19:36:14 13° 279° (W) 19:38:34 437.470
CUBEBUG 2 28 Feb 19:50:08 19:53:38 23° 60° (ENE) 19:57:08 437.445
YUBILEINY 28 Feb 19:58:16 20:04:29 20° 320° (NW) 20:10:31 435.215
BEESAT 3 28 Feb 20:00:12 20:04:16 53° 324° (NW) 20:08:23 437.485
Oscar 11 28 Feb 20:00:46 20:04:39 34° 64° (ENE) 20:08:34 145.826/435.025
O/OREOS (USA 219) 28 Feb 20:00:58 20:05:14 37° 250° (WSW) 20:09:26 437.305
AIST 2 28 Feb 20:05:38 20:09:57 86° 136° (SE) 20:14:18 435.215
AISAT 28 Feb 20:13:36 20:16:19 16° 53° (NE) 20:19:09 437.250
DELFI C3 28 Feb 20:14:53 20:18:33 34° 65° (ENE) 20:22:16 145.870
PCSat 28 Feb 20:15:47 20:17:47 12° 104° (ESE) 20:20:01 145.827
GONETS M04 28 Feb 20:16:33 20:21:25 17° 69° (ENE) 20:26:40
DX 1 28 Feb 20:20:36 20:24:29 31° 61° (ENE) 20:28:24 434.975-435.025
DOVE 4 28 Feb 20:20:45 20:25:54 85° 257° (WSW) 20:30:48 437.250
AIST 1 28 Feb 20:21:32 20:23:13 12° 280° (W) 20:24:43
BEESAT 2 28 Feb 20:23:01 20:27:02 44° 328° (NNW) 20:31:05 435.950
VELOX 1 28 Feb 20:23:57 20:27:00 19° 54° (NE) 20:30:09 145.980
AAUSAT CUBESAT 2 28 Feb 20:26:49 20:30:58 86° 253° (WSW) 20:35:10 437.432
COMPASS 1 28 Feb 20:27:23 20:31:32 76° 255° (WSW) 20:35:44 437.405
CUBEBUG 1 28 Feb 20:27:43 20:28:59 11° 48° (NE) 20:30:24 437.445
CUBESAT XI-V 28 Feb 20:28:41 20:32:43 28° 300° (WNW) 20:36:42 437.345
ESTCUBE 1 28 Feb 20:31:09 20:33:10 13° 49° (NE) 20:35:21 437.505/2401.250
